Location: Oshawa
(43.9000°N, 78.8670°W)
Time: 16:17:27
(UTC-04:00)

Explorer 7 - Visible Passes

Search period start: 01 August 2015 00:00
Search period end: 11 August 2015 00:00
Orbit: 488 x 693 km, 50.3° (Epoch: 31 July)

Date Brightness Start Highest point End Pass type
(mag) Time Alt. Az. Time Alt. Az. Time Alt. Az.
01 Aug 7.3 00:11:42 10° WNW 00:16:41 74° NNE 00:16:48 73° NE visible
01 Aug 9.7 01:52:53 10° WNW 01:53:15 12° WNW 01:53:15 12° WNW visible
01 Aug 8.2 22:38:28 10° WNW 22:43:08 44° NNE 22:47:02 15° E visible
02 Aug 7.5 00:19:20 10° WNW 00:23:29 62° WNW 00:23:29 62° WNW visible
02 Aug 8.5 21:04:57 10° WNW 21:09:25 39° N 21:14:03 10° ENE visible
02 Aug 7.9 22:46:08 10° WNW 22:50:55 52° NNE 22:53:47 23° E visible
03 Aug 8.3 00:27:00 10° WNW 00:30:14 38° W 00:30:14 38° W visible
03 Aug 8.5 21:12:46 10° WNW 21:17:14 38° N 21:21:53 10° ENE visible
03 Aug 7.5 22:53:45 10° WNW 22:58:38 66° NNE 23:00:35 36° E visible
04 Aug 8.9 00:34:47 10° WNW 00:37:03 24° W 00:37:03 24° W visible
04 Aug 8.3 21:20:31 10° WNW 21:25:03 41° N 21:29:46 10° E visible
04 Aug 7.2 23:01:22 10° WNW 23:06:17 89° NNE 23:07:26 54° ESE visible
05 Aug 9.5 00:42:46 10° W 00:43:54 15° W 00:43:54 15° W visible
05 Aug 8.0 21:28:11 10° WNW 21:32:49 48° NNE 21:37:39 10° E visible
05 Aug 7.2 23:08:59 10° WNW 23:13:51 65° SW 23:14:21 61° S visible
06 Aug 7.6 21:35:48 10° WNW 21:40:33 60° NNE 21:44:50 14° E visible
06 Aug 7.8 23:16:42 10° WNW 23:21:18 43° SW 23:21:18 43° SW visible
07 Aug 7.3 21:43:23 10° WNW 21:48:12 79° NNE 21:51:50 19° ESE visible
07 Aug 8.6 23:24:35 10° WNW 23:28:18 27° SW 23:28:18 27° SW visible
08 Aug 7.3 21:51:00 10° WNW 21:55:48 75° SSW 21:58:53 23° SE visible
08 Aug 9.2 23:32:50 10° W 23:35:21 17° WSW 23:35:21 17° WSW visible
09 Aug 7.7 21:58:39 10° WNW 22:03:18 50° SW 22:06:00 24° SSE visible
10 Aug 8.4 22:06:27 10° WNW 22:10:46 32° SW 22:13:10 21° S visible
